Location: Glencliff
(36.1226°N, 86.7183°W)
Time: 04:30:44
(UTC+00:00)

COSMOS 2406 - Pass Details

Date: 25 August 2019
Orbit: 843 x 865 km, 71.0° (Epoch: 15 September)

Event Time Altitude Azimuth Distance (km) Brightness Sun altitude
Rises 01:27:06 0° 198° (SSW) 3,387 6.3 -12.5°
Reaches altitude 10° 01:29:32 10° 197° (SSW) 2,458 5.6 -13.0°
Maximum altitude 01:35:10 84° 111° (ESE) 857 3.2 -14.0°
Drops below altitude 10° 01:40:54 10° 23° (NNE) 2,486 5.7 -15.1°
Sets 01:43:22 0° 23° (NNE) 3,429 6.4 -15.5°
